FW2168 Weather Reports


time (UTC)temp
F
wind
direction
speed
knots
gust
knots
rain 1hr
in
rain 24hr
in
rain mn
in
humidity
%
barometer
mb
20260906171515 89 133 6.1 12.2 0.00 0.00 0.00 75 1014.0
20260906170011 87 146 2.6 7.8 0.00 0.00 0.00 78 1014.4
20260906164508 86 142 5.2 10.4 0.00 0.00 0.00 78 1014.6
20260906163009 86 154 5.2 10.4 0.00 0.00 0.00 79 1014.6
20260906161505 85 130 5.2 10.4 0.00 0.00 0.00 81 1014.5
20260906160001 85 92 4.3 9.6 0.00 0.00 0.00 82 1014.7
20260906154601 84 109 3.5 11.3 0.00 0.00 0.00 84 1014.8
20260906153055 83 153 5.2 11.3 0.00 0.00 0.00 84 1014.6
20260906151551 82 130 5.2 10.4 0.00 0.00 0.00 87 1014.7
20260906144547 79 123 6.1 10.4 0.00 0.00 0.00 92 1014.9
20260906143050 78 144 5.2 9.6 0.00 0.00 0.00 93 1014.9
20260906141547 78 126 6.1 7.8 0.00 0.00 0.00 94 1015.0
20260906140047 77 97 3.5 7.8 0.00 0.00 0.00 95 1015.1
20260906134538 77 146 2.6 9.6 0.00 0.00 0.00 96 1014.9
20260906133056 76 113 3.5 9.6 0.00 0.00 0.00 96 1014.9
20260906131534 76 98 4.3 9.6 0.00 0.00 0.00 96 1014.9
20260906130034 76 92 3.5 8.7 0.00 0.00 0.00 96 1014.7
20260906124531 76 130 5.2 7.8 0.00 0.00 0.00 96 1014.7
20260906123029 76 101 5.2 7.8 0.00 0.00 0.00 96 1014.6
20260906121525 75 128 2.6 6.1 0.00 0.00 0.00 96 1014.4
20260906120122 75 86 3.5 7.8 0.00 0.00 0.00 96 1014.2
20260906114536 75 134 3.5 7.0 0.00 0.00 0.00 95 1013.9
20260906113021 75 103 3.5 8.7 0.00 0.00 0.00 96 1013.6
20260906111517 75 108 4.3 8.7 0.00 0.00 0.00 95 1013.6
20260906110017 75 105 4.3 7.8 0.00 0.00 0.00 95 1013.3
20260906104520 75 119 4.3 7.0 0.00 0.00 0.00 95 1013.4
20260906103013 75 97 3.5 7.0 0.00 0.00 0.00 94 1013.4
20260906101520 75 107 2.6 6.1 0.00 0.00 0.00 94 1013.4
20260906100018 75 107 3.5 6.1 0.00 0.00 0.00 94 1013.4
20260906094509 75 99 3.5 5.2 0.00 0.00 0.00 93 1013.3
20260906093008 76 112 1.7 3.5 0.00 0.00 0.00 92 1013.2
20260906091509 76 150 0.9 5.2 0.00 0.00 0.00 92 1013.0
20260906090008 76 103 2.6 6.1 0.00 0.00 0.00 92 1012.8
20260906084504 77 130 2.6 7.0 0.00 0.00 0.00 91 1012.7
20260906083003 77 121 3.5 7.8 0.00 0.00 0.00 91 1012.7
20260906081559 77 113 4.3 7.0 0.00 0.00 0.00 90 1012.7
20260906074555 78 87 0.9 3.5 0.00 0.00 0.00 88 1013.0
20260906073055 78 124 1.7 7.0 0.00 0.00 0.00 88 1013.0
20260906071554 78 122 3.5 7.0 0.00 0.00 0.00 88 1012.9
20260906070057 78 113 4.3 8.7 0.00 0.00 0.00 88 1012.9
20260906064553 78 104 3.5 8.7 0.00 0.00 0.00 87 1012.9
20260906063048 79 127 3.5 8.7 0.00 0.00 0.00 87 1013.0
20260906061546 79 135 6.1 9.6 0.00 0.00 0.00 87 1013.2
20260906060045 79 121 5.2 9.6 0.00 0.00 0.00 87 1013.1
20260906054557 79 116 6.1 9.6 0.00 0.00 0.00 86 1013.1
20260906053044 79 138 6.1 10.4 0.00 0.00 0.00 86 1013.4
20260906051602 79 104 5.2 8.7 0.00 0.00 0.00 87 1013.3
20260906050044 79 103 6.1 8.7 0.00 0.00 0.00 87 1013.3
20260906044548 79 98 5.2 8.7 0.00 0.00 0.00 86 1013.2
20260906043040 79 109 5.2 7.8 0.00 0.00 0.00 86 1013.1
20260906041537 79 93 5.2 7.8 0.00 0.00 0.00 85 1013.1
20260906040110 79 92 5.2 8.7 0.00 0.00 0.00 83 1013.0
20260906034537 80 110 5.2 7.0 0.00 0.00 0.00 82 1012.8
20260906033051 80 80 4.3 7.8 0.00 0.00 0.00 81 1012.5
20260906031536 80 103 4.3 6.1 0.00 0.00 0.00 80 1012.5
20260906030035 81 109 4.3 7.0 0.00 0.00 0.00 80 1012.5
20260906024534 81 98 3.5 7.0 0.00 0.00 0.00 79 1012.1
20260906023034 81 103 4.3 6.1 0.00 0.00 0.00 78 1012.0
20260906021533 82 104 4.3 7.0 0.00 0.00 0.00 78 1011.6
20260906020034 82 96 3.5 7.0 0.00 0.00 0.00 77 1011.5
20260906014532 83 92 4.3 7.0 0.00 0.00 0.00 77 1011.4
20260906013033 83 96 4.3 7.0 0.00 0.00 0.00 76 1011.2
20260906011531 84 103 4.3 7.0 0.00 0.00 0.00 75 1010.9
20260906010030 84 100 2.6 5.2 0.00 0.00 0.00 74 1011.0
20260906004530 85 111 2.6 3.5 0.00 0.00 0.00 72 1010.9
20260906003029 87 111 2.6 5.2 0.00 0.00 0.00 70 1010.9
20260906001531 89 117 1.7 5.2 0.00 0.00 0.00 68 1010.7
20260906000028 90 113 2.6 7.0 0.00 0.00 0.00 66 1010.9
20260905234527 90 103 2.6 7.0 0.00 0.00 0.00 64 1010.7
20260905233026 91 111 4.3 7.0 0.00 0.00 0.00 63 1010.7
20260905231526 92 96 4.3 8.7 0.00 0.00 0.00 62 1010.9
20260905230025 92 119 6.1 9.6 0.00 0.00 0.00 60 1010.8
20260905224600 92 99 5.2 9.6 0.00 0.00 0.00 61 1010.7
20260905223023 93 119 7.0 13.0 0.00 0.00 0.00 60 1010.4
20260905221522 93 113 6.1 11.3 0.00 0.00 0.00 62 1010.7
20260905220021 93 107 6.1 11.3 0.00 0.00 0.00 62 1010.9
20260905214520 93 126 6.1 9.6 0.00 0.00 0.00 62 1010.7
20260905213020 93 94 6.1 8.7 0.00 0.00 0.00 61 1010.7
20260905211617 93 96 7.0 13.0 0.00 0.00 0.00 61 1011.0
20260905210023 93 88 6.1 10.4 0.00 0.00 0.00 62 1011.0
20260905204516 93 108 7.0 12.2 0.00 0.00 0.00 61 1011.2
20260905203014 93 360 6.1 10.4 0.00 0.00 0.00 61 1011.5
20260905201513 94 48 7.0 11.3 0.00 0.00 0.00 60 1011.7
20260905200022 94 30 1.7 7.8 0.00 0.00 0.00 59 1011.9
20260905194517 94 85 5.2 8.7 0.00 0.00 0.00 59 1012.1
20260905193012 94 5 4.3 7.8 0.00 0.00 0.00 62 1012.2
20260905191509 94 24 7.0 11.3 0.00 0.00 0.00 59 1012.5
20260905190009 95 15 6.1 10.4 0.00 0.00 0.00 61 1012.5
20260905184519 94 342 4.3 8.7 0.00 0.00 0.00 59 1012.8
20260905183006 94 10 6.1 8.7 0.00 0.00 0.00 59 1013.0
20260905181505 94 25 3.5 7.8 0.00 0.00 0.00 59 1013.0
20260905180109 94 344 1.7 7.0 0.00 0.00 0.00 59 1013.2
20260905174503 94 299 2.6 7.8 0.00 0.00 0.00 59 1013.3
20260905173001 94 323 3.5 7.0 0.00 0.00 0.00 61 1013.2